Theta_e
307 307 304 298 293 298 293 301 299 303 308 316 320 322 322 321 326 326 331 333 334 334 337 340 341 340 341 344 346 347 348 348
308 307 306 299 303 293 292 290 293 300 303 303 313 318 321 318 321 325 331 334 334 336 337 339 340 341 342 335 336 347 348 349
308 300 298 298 297 300 298 298 294 294 300 311 314 317 320 321 326 326 328 329 333 335 338 339 339 343 342 342 341 349 349 350
303 310 308 304 299 300 295 294 297 299 300 318 317 317 322 321 324 326 328 329 332 333 337 339 337 345 347 347 347 349 350 349
296 301 307 300 302 301 301 297 297 295 301 316 319 321 323 325 326 326 329 329 332 337 338 340 344 343 344 345 344 348 350 349
293 299 305 305 307 307 305 295 299 301 305 311 318 321 322 324 326 327 330 333 335 335 335 337 341 343 344 345 347 349 350 349
302 308 308 306 307 307 302 305 297 304 308 312 315 321 321 324 327 328 331 333 333 334 335 335 336 340 346 345 345 348 348 345
301 306 308 306 309 309 309 309 306 309 306 318 319 320 322 323 327 326 330 333 333 335 334 333 338 340 342 343 343 344 343 340
296 303 303 302 307 308 309 310 307 303 310 317 317 320 322 324 326 327 329 332 332 333 333 334 334 337 339 341 344 342 340 338
299 302 294 303 312 313 310 312 313 312 315 317 319 321 325 327 326 328 331 332 332 331 330 332 333 333 334 339 337 335 334 338
297 297 301 306 311 310 308 308 314 317 319 320 320 320 321 327 328 329 332 332 332 333 333 334 334 334 331 330 330 331 333 333
299 296 294 305 313 317 314 303 316 315 317 319 319 310 314 325 329 333 334 333 333 333 333 331 331 334 332 329 327 327 330 332
299 297 302 312 314 316 302 302 316 316 318 317 315 319 321 331 332 334 334 334 335 333 332 333 332 333 332 331 329 333 335 336
299 296 294 314 314 305 310 314 316 316 326 325 326 328 333 334 335 336 334 336 336 334 333 335 336 335 336 334 336 339 338 336
304 303 311 316 314 316 318 315 316 320 329 329 328 332 333 332 333 333 332 333 334 333 332 333 331 335 336 336 337 336 333 331
305 310 311 314 320 319 318 318 318 332 331 330 329 333 332 331 331 331 332 332 331 330 328 327 328 332 333 335 335 332 329 329
305 311 311 319 314 316 317 322 323 324 332 331 331 330 331 329 326 325 325 326 327 327 327 328 328 328 330 334 334 332 330 330
301 312 310 310 315 318 317 320 322 320 330 331 331 329 329 327 327 327 326 327 326 325 327 326 328 328 327 333 331 329 327 330
310 316 314 316 317 320 320 321 324 329 330 328 330 330 329 328 329 328 328 327 325 324 328 326 327 325 329 332 330 329 328 326
Wind_Speed
12 6 8 10 6 12 3 3 4 3 6 3 14 16 14 13 12 12 12 12 23 19 19 18 20 18 14 13 9 13 15 12
11 8 8 7 7 1 3 4 4 3 2 5 2 16 16 17 18 16 16 19 17 13 18 19 19 17 17 20 20 16 16 14
2 5 9 5 5 4 3 4 6 5 6 6 17 17 21 21 14 11 9 5 6 6 8 12 13 19 22 18 21 18 16 15
11 8 11 9 7 7 5 9 3 6 6 11 16 22 16 10 12 8 9 7 5 6 7 7 11 13 19 20 17 16 15 13
8 4 5 6 9 4 4 1 3 5 2 10 10 8 12 14 10 9 9 8 7 8 8 7 7 4 10 15 16 16 15 14
7 7 4 1 5 6 4 3 2 3 5 6 11 15 12 10 9 9 8 8 7 7 6 6 5 3 3 2 10 12 14 12
7 6 4 4 8 13 7 15 1 10 12 12 11 16 13 13 11 10 9 8 8 7 5 6 7 6 4 4 3 6 8 7
6 7 8 6 1 9 11 12 17 10 6 12 10 11 13 13 13 10 9 10 8 8 6 4 6 7 5 1 3 5 4 6
7 7 4 2 11 11 7 6 3 9 7 9 9 14 16 14 12 11 10 10 10 8 6 5 3 5 7 6 4 4 4 5
3 5 9 6 9 12 10 10 11 18 9 17 14 11 13 14 11 11 14 14 11 9 7 6 4 5 6 6 6 6 6 6
2 4 4 4 5 3 6 7 15 17 13 13 12 9 9 13 10 10 14 12 10 8 9 8 7 6 6 6 6 6 7 5
1 3 5 7 6 12 7 3 11 14 12 14 13 8 6 13 13 15 15 14 12 9 7 9 6 5 5 5 6 5 6 5
10 7 8 3 10 7 9 8 3 8 7 10 6 6 7 17 16 16 15 14 12 9 7 8 7 6 5 4 3 3 4 4
7 9 9 7 5 9 8 5 7 9 8 14 12 13 18 17 16 15 12 11 9 8 7 6 5 4 2 3 4 6 8 9
5 3 11 14 7 1 14 9 6 13 5 14 14 16 15 15 14 14 11 8 8 8 7 6 6 5 7 4 6 7 7 6
8 3 18 18 17 14 6 8 2 19 17 16 14 15 14 12 10 9 9 7 6 9 8 7 7 7 6 6 6 7 7 6
5 7 11 1 16 18 18 16 4 1 20 18 16 13 15 12 9 8 8 7 7 8 8 8 7 6 6 6 6 6 6 5
6 5 6 12 16 21 15 13 16 14 16 16 18 15 15 12 10 9 9 8 8 8 9 8 7 7 5 6 6 4 2 4
6 3 8 7 13 13 11 14 16 20 19 18 15 15 15 15 10 13 11 9 9 8 8 8 7 6 6 6 6 5 2 3
Wind_Direction
181 184 186 263 199 215 179 21 87 258 270 14 143 178 177 209 222 241 200 204 210 194 192 185 184 195 176 163 212 199 203 198
192 172 226 188 229 308 293 144 198 224 316 242 124 183 192 203 209 229 203 210 202 194 180 181 182 186 176 186 195 215 199 197
359 192 192 274 283 277 161 167 151 169 245 225 125 262 197 198 173 135 134 132 131 198 211 171 171 177 180 190 195 200 194 202
229 255 192 203 231 206 144 286 246 152 266 200 172 215 169 155 142 138 134 130 99 93 70 127 162 164 176 185 189 189 186 197
317 300 302 208 244 244 230 153 242 107 242 195 173 89 101 108 105 104 106 104 68 58 58 57 51 65 178 185 190 193 188 193
197 210 170 347 339 340 23 318 168 121 131 11 107 111 109 112 115 120 117 105 97 76 53 31 27 20 306 249 208 184 197 191
288 137 165 229 274 277 344 303 231 214 166 185 167 147 145 140 144 135 135 116 109 100 76 25 347 341 313 306 23 192 207 175
281 285 210 194 291 310 309 313 350 190 207 178 180 134 141 151 142 149 140 138 130 106 91 70 1 339 341 347 57 130 135 175
250 268 284 355 188 203 228 298 187 290 193 130 148 153 157 153 149 154 145 143 124 119 110 96 48 9 22 16 40 32 76 112
205 325 269 234 174 169 206 284 326 300 211 161 166 161 148 152 149 151 138 135 131 126 121 114 94 60 49 49 58 68 53 80
188 235 276 4 178 121 132 255 268 186 171 149 141 105 151 151 147 144 150 144 139 140 135 125 118 112 83 69 64 57 67 88
281 180 241 191 164 136 138 220 297 326 166 146 133 130 210 155 147 133 135 136 133 127 118 113 120 119 107 103 100 92 95 98
256 243 245 175 139 147 147 225 306 312 163 133 101 174 146 108 114 119 126 127 133 140 152 155 161 155 154 171 169 162 125 119
229 246 262 163 140 156 189 180 79 359 84 105 113 97 110 115 116 117 121 125 114 114 114 116 112 112 139 115 93 79 78 67
28 324 329 333 217 161 152 168 144 136 201 119 122 120 118 123 126 129 134 130 131 130 123 110 92 63 98 82 85 91 84 64
348 308 331 337 1 14 345 146 147 143 143 139 131 132 129 132 134 132 146 143 136 132 126 117 99 76 99 101 84 81 94 102
249 264 313 174 353 348 336 327 57 321 148 143 136 128 132 130 126 120 112 114 121 121 117 119 105 89 91 96 105 107 130 133
243 188 176 272 315 323 326 329 312 232 154 143 134 135 131 131 130 120 114 107 103 109 117 123 124 127 106 112 111 127 149 142
237 186 223 237 251 285 335 329 311 181 145 143 139 137 137 135 137 133 130 129 135 141 134 133 144 145 135 136 136 142 160 100